| time (UTC) | temp F | wind direction | speed knots | gust knots | rain 1hr in | rain 24hr in | rain mn in | humidity % | barometer mb |
| 20260506165020 | 58 | 225 | 1.7 | 3.5 | 0.00 | 0.00 | 0.00 | 43 | 1018.0 |
| 20260506164602 | 57 | 15 | 1.7 | 3.5 | 0.00 | 0.00 | 0.00 | 43 | 1017.9 |
| 20260506164020 | 57 | 288 | 0.9 | 3.5 | 0.00 | 0.00 | 0.00 | 43 | 1017.8 |
| 20260506163513 | 57 | 233 | 1.7 | 3.5 | 0.00 | 0.00 | 0.00 | 43 | 1017.9 |
| 20260506163056 | 57 | 198 | 1.7 | 3.5 | 0.00 | 0.00 | 0.00 | 43 | 1017.7 |
| 20260506162522 | 57 | 303 | 0.9 | 5.2 | 0.00 | 0.00 | 0.00 | 43 | 1017.8 |
| 20260506162020 | 57 | 303 | 2.6 | 5.2 | 0.00 | 0.00 | 0.00 | 42 | 1017.8 |
| 20260506161608 | 57 | 11 | 1.7 | 4.3 | 0.00 | 0.00 | 0.00 | 46 | 1017.8 |
| 20260506161020 | 56 | 319 | 2.6 | 5.2 | 0.00 | 0.00 | 0.00 | 43 | 1017.8 |
| 20260506160520 | 56 | 342 | 2.6 | 5.2 | 0.00 | 0.00 | 0.00 | 44 | 1018.1 |
| 20260506160111 | 56 | 340 | 1.7 | 7.0 | 0.00 | 0.00 | 0.00 | 46 | 1017.9 |
| 20260506155516 | 57 | 309 | 3.5 | 7.0 | 0.00 | 0.00 | 0.00 | 45 | 1017.8 |
| 20260506155017 | 56 | 322 | 3.5 | 7.0 | 0.00 | 0.00 | 0.00 | 45 | 1017.8 |
| 20260506154613 | 56 | 327 | 4.3 | 7.0 | 0.00 | 0.00 | 0.00 | 46 | 1017.8 |
| 20260506154017 | 55 | 360 | 2.6 | 7.8 | 0.00 | 0.00 | 0.00 | 46 | 1017.8 |
| 20260506153520 | 55 | 318 | 4.3 | 7.8 | 0.00 | 0.00 | 0.00 | 46 | 1017.8 |
| 20260506153054 | 55 | 341 | 4.3 | 9.6 | 0.00 | 0.00 | 0.00 | 46 | 1017.9 |
| 20260506152519 | 55 | 328 | 4.3 | 9.6 | 0.00 | 0.00 | 0.00 | 46 | 1017.8 |
| 20260506152019 | 55 | 315 | 3.5 | 5.2 | 0.00 | 0.00 | 0.00 | 46 | 1017.9 |
| 20260506151555 | 55 | 315 | 2.6 | 5.2 | 0.00 | 0.00 | 0.00 | 46 | 1017.8 |
| 20260506151020 | 54 | 344 | 2.6 | 7.8 | 0.00 | 0.00 | 0.00 | 47 | 1017.8 |
| 20260506150522 | 54 | 352 | 4.3 | 8.7 | 0.00 | 0.00 | 0.00 | 48 | 1017.8 |
| 20260506150146 | 54 | 339 | 4.3 | 8.7 | 0.00 | 0.00 | 0.00 | 47 | 1017.8 |
| 20260506145531 | 53 | 321 | 4.3 | 8.7 | 0.00 | 0.00 | 0.00 | 48 | 1017.8 |
| 20260506145025 | 53 | 333 | 4.3 | 7.8 | 0.00 | 0.00 | 0.00 | 48 | 1017.8 |
| 20260506144833 | 53 | 346 | 4.3 | 7.8 | 0.00 | 0.00 | 0.00 | 48 | 1017.8 |
| 20260506144018 | 53 | 5 | 5.2 | 7.8 | 0.00 | 0.00 | 0.00 | 48 | 1017.8 |
| 20260506143524 | 53 | 326 | 4.3 | 7.8 | 0.00 | 0.00 | 0.00 | 48 | 1017.8 |
| 20260506143055 | 53 | 330 | 3.5 | 7.0 | 0.00 | 0.00 | 0.00 | 48 | 1017.8 |
| 20260506142522 | 53 | 315 | 2.6 | 7.0 | 0.00 | 0.00 | 0.00 | 48 | 1017.8 |
| 20260506142023 | 53 | 335 | 3.5 | 8.7 | 0.00 | 0.00 | 0.00 | 48 | 1017.8 |
| 20260506141610 | 52 | 323 | 4.3 | 8.7 | 0.00 | 0.00 | 0.00 | 48 | 1017.9 |
| 20260506141024 | 53 | 319 | 3.5 | 7.0 | 0.00 | 0.00 | 0.00 | 48 | 1017.8 |
| 20260506140517 | 53 | 309 | 3.5 | 7.0 | 0.00 | 0.00 | 0.00 | 47 | 1017.8 |
| 20260506140332 | 53 | 334 | 2.6 | 5.2 | 0.00 | 0.00 | 0.00 | 47 | 1017.8 |
| 20260506135515 | 53 | 342 | 3.5 | 7.0 | 0.00 | 0.00 | 0.00 | 47 | 1017.8 |
| 20260506135016 | 53 | 317 | 3.5 | 7.0 | 0.00 | 0.00 | 0.00 | 47 | 1017.6 |
| 20260506134553 | 52 | 323 | 3.5 | 7.0 | 0.00 | 0.00 | 0.00 | 48 | 1017.7 |
| 20260506134015 | 52 | 336 | 4.3 | 7.0 | 0.00 | 0.00 | 0.00 | 48 | 1017.6 |
| 20260506133709 | 52 | 340 | 3.5 | 5.2 | 0.00 | 0.00 | 0.00 | 48 | 1017.6 |
| 20260506133704 | 52 | 337 | 3.5 | 5.2 | 0.00 | 0.00 | 0.00 | 48 | 1017.6 |
| 20260506132514 | 52 | 352 | 3.5 | 7.0 | 0.00 | 0.00 | 0.00 | 47 | 1017.5 |
| 20260506132015 | 52 | 360 | 2.6 | 7.0 | 0.00 | 0.00 | 0.00 | 48 | 1017.6 |
| 20260506131546 | 51 | 316 | 2.6 | 5.2 | 0.00 | 0.00 | 0.00 | 48 | 1017.5 |
| 20260506131013 | 51 | 336 | 3.5 | 5.2 | 0.00 | 0.00 | 0.00 | 48 | 1017.6 |
| 20260506130514 | 51 | 325 | 3.5 | 7.0 | 0.00 | 0.00 | 0.00 | 49 | 1017.5 |
| 20260506130103 | 51 | 313 | 5.2 | 7.0 | 0.00 | 0.00 | 0.00 | 49 | 1017.7 |
| 20260506125517 | 51 | 298 | 4.3 | 7.0 | 0.00 | 0.00 | 0.00 | 49 | 1017.6 |
| 20260506125015 | 51 | 304 | 3.5 | 6.1 | 0.00 | 0.00 | 0.00 | 48 | 1017.6 |
| 20260506124542 | 52 | 306 | 2.6 | 5.2 | 0.00 | 0.00 | 0.00 | 47 | 1017.5 |
| 20260506124016 | 52 | 313 | 2.6 | 5.2 | 0.00 | 0.00 | 0.00 | 46 | 1017.4 |
| 20260506123516 | 52 | 323 | 3.5 | 5.2 | 0.00 | 0.00 | 0.00 | 46 | 1017.6 |
| 20260506123047 | 52 | 321 | 1.7 | 3.5 | 0.00 | 0.00 | 0.00 | 46 | 1017.5 |
| 20260506122517 | 52 | 321 | 1.7 | 3.5 | 0.00 | 0.00 | 0.00 | 46 | 1017.5 |
| 20260506122015 | 52 | 321 | 1.7 | 3.5 | 0.00 | 0.00 | 0.00 | 46 | 1017.4 |
| 20260506121552 | 52 | 315 | 1.7 | 3.5 | 0.00 | 0.00 | 0.00 | 46 | 1017.5 |
| 20260506121016 | 52 | 315 | 1.7 | 3.5 | 0.00 | 0.00 | 0.00 | 46 | 1017.5 |
| 20260506120520 | 52 | 315 | 1.7 | 2.6 | 0.00 | 0.00 | 0.00 | 47 | 1017.5 |
| 20260506120057 | 52 | 315 | 0.9 | 2.6 | 0.00 | 0.00 | 0.00 | 47 | 1017.5 |
| 20260506115517 | 52 | 315 | 0.9 | 2.6 | 0.00 | 0.00 | 0.00 | 47 | 1017.5 |
| 20260506115026 | 52 | 315 | 0.9 | 2.6 | 0.00 | 0.00 | 0.00 | 47 | 1017.5 |
| 20260506114541 | 52 | 315 | 1.7 | 2.6 | 0.00 | 0.00 | 0.00 | 46 | 1017.4 |
| 20260506114019 | 53 | 315 | 0.9 | 1.7 | 0.00 | 0.00 | 0.00 | 46 | 1017.4 |
| 20260506113515 | 53 | 315 | 0.0 | 3.5 | 0.00 | 0.00 | 0.00 | 46 | 1017.4 |
| 20260506113052 | 53 | 315 | 1.7 | 3.5 | 0.00 | 0.00 | 0.00 | 46 | 1017.4 |
| 20260506112518 | 53 | 342 | 1.7 | 2.6 | 0.00 | 0.00 | 0.00 | 46 | 1017.4 |
| 20260506112013 | 53 | 342 | 0.9 | 2.6 | 0.00 | 0.00 | 0.00 | 45 | 1017.4 |
| 20260506111548 | 53 | 342 | 0.9 | 3.5 | 0.00 | 0.00 | 0.00 | 45 | 1017.4 |
| 20260506111016 | 53 | 342 | 0.9 | 3.5 | 0.00 | 0.00 | 0.00 | 46 | 1017.4 |
| 20260506110518 | 53 | 343 | 1.7 | 4.3 | 0.00 | 0.00 | 0.00 | 46 | 1017.3 |
| 20260506110047 | 53 | 342 | 1.7 | 4.3 | 0.00 | 0.00 | 0.00 | 46 | 1017.4 |
| 20260506105518 | 53 | 326 | 1.7 | 4.3 | 0.00 | 0.00 | 0.00 | 46 | 1017.4 |
| 20260506105023 | 53 | 323 | 2.6 | 4.3 | 0.00 | 0.00 | 0.00 | 46 | 1017.3 |
| 20260506104605 | 53 | 325 | 1.7 | 4.3 | 0.00 | 0.00 | 0.00 | 45 | 1017.4 |
| 20260506104129 | 53 | 337 | 2.6 | 4.3 | 0.00 | 0.00 | 0.00 | 45 | 1017.4 |
| 20260506103514 | 53 | 327 | 2.6 | 4.3 | 0.00 | 0.00 | 0.00 | 45 | 1017.4 |
| 20260506103041 | 53 | 327 | 1.7 | 4.3 | 0.00 | 0.00 | 0.00 | 45 | 1017.4 |
| 20260506102521 | 53 | 340 | 2.6 | 4.3 | 0.00 | 0.00 | 0.00 | 45 | 1017.4 |
| 20260506102016 | 53 | 327 | 2.6 | 7.0 | 0.00 | 0.00 | 0.00 | 45 | 1017.4 |
| 20260506101557 | 53 | 326 | 2.6 | 7.0 | 0.00 | 0.00 | 0.00 | 45 | 1017.4 |
| 20260506101016 | 53 | 333 | 3.5 | 5.2 | 0.00 | 0.00 | 0.00 | 45 | 1017.4 |
| 20260506100528 | 53 | 333 | 2.6 | 7.0 | 0.00 | 0.00 | 0.00 | 45 | 1017.4 |
| 20260506100106 | 53 | 327 | 2.6 | 7.0 | 0.00 | 0.00 | 0.00 | 45 | 1017.4 |
| 20260506095515 | 53 | 342 | 2.6 | 4.3 | 0.00 | 0.00 | 0.00 | 45 | 1017.5 |
| 20260506095013 | 53 | 331 | 2.6 | 4.3 | 0.00 | 0.00 | 0.00 | 45 | 1017.4 |
| 20260506094552 | 53 | 331 | 2.6 | 4.3 | 0.00 | 0.00 | 0.00 | 45 | 1017.4 |
| 20260506094013 | 54 | 342 | 1.7 | 3.5 | 0.00 | 0.00 | 0.00 | 45 | 1017.4 |
| 20260506093516 | 54 | 338 | 1.7 | 4.3 | 0.00 | 0.00 | 0.00 | 45 | 1017.5 |
| 20260506093048 | 54 | 340 | 2.6 | 4.3 | 0.00 | 0.00 | 0.00 | 45 | 1017.6 |
| 20260506092514 | 54 | 343 | 2.6 | 4.3 | 0.00 | 0.00 | 0.00 | 45 | 1017.6 |
| 20260506092015 | 54 | 340 | 2.6 | 4.3 | 0.00 | 0.00 | 0.00 | 45 | 1017.6 |
| 20260506091548 | 54 | 349 | 2.6 | 4.3 | 0.00 | 0.00 | 0.00 | 45 | 1017.6 |
| 20260506091017 | 54 | 336 | 1.7 | 5.2 | 0.00 | 0.00 | 0.00 | 45 | 1017.6 |
| 20260506090519 | 54 | 317 | 2.6 | 5.2 | 0.00 | 0.00 | 0.00 | 45 | 1017.6 |
| 20260506090051 | 54 | 332 | 2.6 | 5.2 | 0.00 | 0.00 | 0.00 | 45 | 1017.6 |
| 20260506085513 | 54 | 329 | 2.6 | 7.0 | 0.00 | 0.00 | 0.00 | 45 | 1017.6 |
| 20260506085016 | 54 | 315 | 3.5 | 7.0 | 0.00 | 0.00 | 0.00 | 45 | 1017.8 |
| 20260506084555 | 54 | 315 | 4.3 | 7.0 | 0.00 | 0.00 | 0.00 | 45 | 1017.6 |
| 20260506084011 | 54 | 327 | 4.3 | 7.0 | 0.00 | 0.00 | 0.00 | 45 | 1017.6 |
| 20260506083549 | 54 | 321 | 3.5 | 7.0 | 0.00 | 0.00 | 0.00 | 45 | 1017.6 |
| 20260506083531 | 54 | 322 | 3.5 | 7.8 | 0.00 | 0.00 | 0.00 | 45 | 1017.7 |
| 20260506082516 | 54 | 329 | 4.3 | 7.8 | 0.00 | 0.00 | 0.00 | 46 | 1017.6 |
| 20260506082026 | 54 | 321 | 3.5 | 7.8 | 0.00 | 0.00 | 0.00 | 46 | 1017.6 |
| 20260506081603 | 54 | 333 | 3.5 | 7.8 | 0.00 | 0.00 | 0.00 | 46 | 1017.6 |
| 20260506081018 | 54 | 325 | 4.3 | 7.0 | 0.00 | 0.00 | 0.00 | 46 | 1017.6 |
| 20260506080515 | 54 | 333 | 3.5 | 5.2 | 0.00 | 0.00 | 0.00 | 46 | 1017.6 |
| 20260506080321 | 54 | 341 | 2.6 | 7.8 | 0.00 | 0.00 | 0.00 | 46 | 1017.6 |
| 20260506073522 | 54 | 331 | 5.2 | 9.6 | 0.00 | 0.00 | 0.00 | 47 | 1017.6 |
| 20260506073323 | 54 | 321 | 6.1 | 8.7 | 0.00 | 0.00 | 0.00 | 47 | 1017.6 |
| 20260506072516 | 54 | 317 | 6.1 | 9.6 | 0.00 | 0.00 | 0.00 | 47 | 1017.5 |
| 20260506072354 | 54 | 311 | 5.2 | 7.0 | 0.00 | 0.00 | 0.00 | 48 | 1017.6 |
| 20260506071822 | 54 | 319 | 5.2 | 7.8 | 0.00 | 0.00 | 0.00 | 47 | 1017.6 |
| 20260506071016 | 54 | 308 | 4.3 | 7.8 | 0.00 | 0.00 | 0.00 | 47 | 1017.6 |
| 20260506070519 | 54 | 312 | 4.3 | 7.8 | 0.00 | 0.00 | 0.00 | 47 | 1017.6 |
| 20260506062516 | 55 | 319 | 5.2 | 8.7 | 0.00 | 0.00 | 0.00 | 46 | 1017.4 |
| 20260506062018 | 55 | 320 | 5.2 | 8.7 | 0.00 | 0.00 | 0.00 | 46 | 1017.4 |
| 20260506061611 | 55 | 323 | 4.3 | 7.8 | 0.00 | 0.00 | 0.00 | 47 | 1017.4 |
| 20260506061018 | 55 | 329 | 5.2 | 9.6 | 0.00 | 0.00 | 0.00 | 47 | 1017.3 |
| 20260506060516 | 55 | 304 | 6.1 | 9.6 | 0.00 | 0.00 | 0.00 | 47 | 1017.3 |
| 20260506060129 | 55 | 327 | 4.3 | 7.8 | 0.00 | 0.00 | 0.00 | 47 | 1017.5 |
| 20260506051018 | 56 | 312 | 4.3 | 10.4 | 0.00 | 0.00 | 0.00 | 46 | 1017.3 |
| 20260506050528 | 57 | 314 | 7.0 | 11.3 | 0.00 | 0.00 | 0.00 | 45 | 1017.3 |
| 20260506050521 | 57 | 307 | 8.7 | 11.3 | 0.00 | 0.00 | 0.00 | 45 | 1017.2 |
| 20260506045016 | 57 | 315 | 7.0 | 10.4 | 0.00 | 0.00 | 0.00 | 45 | 1017.3 |
| 20260506044557 | 57 | 325 | 7.0 | 10.4 | 0.00 | 0.00 | 0.00 | 45 | 1017.2 |
| 20260506044017 | 57 | 304 | 7.0 | 10.4 | 0.00 | 0.00 | 0.00 | 45 | 1017.2 |
| 20260506043519 | 57 | 309 | 7.8 | 11.3 | 0.00 | 0.00 | 0.00 | 45 | 1017.2 |
| 20260506043111 | 58 | 307 | 7.0 | 12.2 | 0.00 | 0.00 | 0.00 | 45 | 1017.1 |
| 20260506042518 | 57 | 286 | 6.1 | 12.2 | 0.00 | 0.00 | 0.00 | 45 | 1017.2 |
| 20260506042021 | 57 | 307 | 7.8 | 11.3 | 0.00 | 0.00 | 0.00 | 44 | 1017.0 |
| 20260506041609 | 57 | 284 | 7.0 | 10.4 | 0.00 | 0.00 | 0.00 | 45 | 1016.9 |
| 20260506041021 | 57 | 300 | 7.8 | 11.3 | 0.00 | 0.00 | 0.00 | 45 | 1017.0 |
| 20260506040518 | 58 | 302 | 7.0 | 8.7 | 0.00 | 0.00 | 0.00 | 45 | 1017.0 |
| 20260506040110 | 58 | 288 | 7.0 | 10.4 | 0.00 | 0.00 | 0.00 | 44 | 1017.0 |
| 20260506035518 | 58 | 345 | 6.1 | 10.4 | 0.00 | 0.00 | 0.00 | 44 | 1016.9 |
| 20260506035017 | 58 | 283 | 4.3 | 7.8 | 0.00 | 0.00 | 0.00 | 47 | 1016.9 |
| 20260506034618 | 58 | 280 | 4.3 | 7.0 | 0.00 | 0.00 | 0.00 | 47 | 1016.8 |
| 20260506034021 | 58 | 272 | 4.3 | 7.0 | 0.00 | 0.00 | 0.00 | 47 | 1016.8 |
| 20260506033517 | 58 | 277 | 4.3 | 6.1 | 0.00 | 0.00 | 0.00 | 47 | 1016.8 |
| 20260506033056 | 58 | 271 | 3.5 | 7.8 | 0.00 | 0.00 | 0.00 | 47 | 1016.7 |
| 20260506032516 | 58 | 261 | 2.6 | 8.7 | 0.00 | 0.00 | 0.00 | 46 | 1016.4 |
| 20260506032017 | 59 | 237 | 2.6 | 8.7 | 0.00 | 0.00 | 0.00 | 46 | 1016.3 |
| 20260506031548 | 60 | 267 | 1.7 | 7.0 | 0.00 | 0.00 | 0.00 | 45 | 1016.3 |
| 20260506031016 | 61 | 209 | 1.7 | 7.8 | 0.00 | 0.00 | 0.00 | 43 | 1016.2 |
| 20260506030512 | 61 | 201 | 1.7 | 7.8 | 0.00 | 0.00 | 0.00 | 42 | 1016.3 |
| 20260506030040 | 62 | 258 | 1.7 | 7.0 | 0.00 | 0.00 | 0.00 | 41 | 1016.3 |
| 20260506025515 | 62 | 167 | 2.6 | 6.1 | 0.00 | 0.00 | 0.00 | 40 | 1016.3 |
| 20260506025015 | 63 | 211 | 0.9 | 5.2 | 0.00 | 0.00 | 0.00 | 39 | 1016.2 |
| 20260506024548 | 64 | 224 | 2.6 | 5.2 | 0.00 | 0.00 | 0.00 | 38 | 1016.0 |
| 20260506024015 | 64 | 144 | 0.9 | 5.2 | 0.00 | 0.00 | 0.00 | 37 | 1016.1 |
| 20260506023516 | 65 | 200 | 1.7 | 7.0 | 0.00 | 0.00 | 0.00 | 36 | 1016.2 |
| 20260506023038 | 65 | 232 | 2.6 | 7.0 | 0.00 | 0.00 | 0.00 | 36 | 1016.1 |
| 20260506022516 | 65 | 75 | 0.9 | 7.8 | 0.00 | 0.00 | 0.00 | 33 | 1016.1 |
| 20260506022016 | 66 | 232 | 0.9 | 12.2 | 0.00 | 0.00 | 0.00 | 33 | 1016.2 |
| 20260506021544 | 66 | 273 | 8.7 | 11.3 | 0.00 | 0.00 | 0.00 | 31 | 1016.0 |
| 20260506021016 | 66 | 303 | 4.3 | 8.7 | 0.00 | 0.00 | 0.00 | 31 | 1016.1 |
| 20260506020518 | 66 | 331 | 3.5 | 7.0 | 0.00 | 0.00 | 0.00 | 31 | 1016.1 |
| 20260506020044 | 65 | 169 | 0.9 | 13.0 | 0.00 | 0.00 | 0.00 | 31 | 1016.1 |
| 20260506015514 | 65 | 325 | 6.1 | 13.0 | 0.00 | 0.00 | 0.00 | 30 | 1016.2 |
| 20260506015016 | 66 | 290 | 7.0 | 12.2 | 0.00 | 0.00 | 0.00 | 30 | 1016.2 |
| 20260506014541 | 66 | 265 | 4.3 | 10.4 | 0.00 | 0.00 | 0.00 | 31 | 1016.2 |
| 20260506014013 | 66 | 166 | 1.7 | 6.1 | 0.00 | 0.00 | 0.00 | 31 | 1016.2 |
| 20260506013517 | 67 | 270 | 2.6 | 7.8 | 0.00 | 0.00 | 0.00 | 31 | 1016.3 |
| 20260506013042 | 68 | 335 | 5.2 | 8.7 | 0.00 | 0.00 | 0.00 | 29 | 1016.3 |
| 20260506012527 | 69 | 262 | 2.6 | 10.4 | 0.00 | 0.00 | 0.00 | 30 | 1016.3 |
| 20260506012013 | 68 | 236 | 3.5 | 12.2 | 0.00 | 0.00 | 0.00 | 31 | 1016.3 |
| 20260506011547 | 66 | 282 | 7.0 | 12.2 | 0.00 | 0.00 | 0.00 | 31 | 1016.1 |
| 20260506011027 | 66 | 285 | 7.0 | 10.4 | 0.00 | 0.00 | 0.00 | 32 | 1016.2 |
| 20260506010524 | 65 | 272 | 5.2 | 8.7 | 0.00 | 0.00 | 0.00 | 32 | 1016.3 |
| 20260506010120 | 66 | 289 | 4.3 | 8.7 | 0.00 | 0.00 | 0.00 | 30 | 1016.3 |
| 20260506005527 | 68 | 332 | 5.2 | 8.7 | 0.00 | 0.00 | 0.00 | 29 | 1016.5 |
| 20260506005015 | 69 | 281 | 5.2 | 7.8 | 0.00 | 0.00 | 0.00 | 28 | 1016.1 |
| 20260506004545 | 70 | 246 | 0.9 | 7.0 | 0.00 | 0.00 | 0.00 | 30 | 1016.2 |
| 20260506004025 | 69 | 266 | 2.6 | 8.7 | 0.00 | 0.00 | 0.00 | 32 | 1016.3 |
| 20260506003515 | 67 | 266 | 1.7 | 9.6 | 0.00 | 0.00 | 0.00 | 30 | 1016.5 |
| 20260506003044 | 68 | 295 | 6.1 | 9.6 | 0.00 | 0.00 | 0.00 | 29 | 1016.4 |
| 20260506002518 | 69 | 296 | 5.2 | 9.6 | 0.00 | 0.00 | 0.00 | 29 | 1016.4 |
| 20260506002016 | 69 | 291 | 4.3 | 8.7 | 0.00 | 0.00 | 0.00 | 32 | 1016.4 |
| 20260506001600 | 67 | 279 | 3.5 | 8.7 | 0.00 | 0.00 | 0.00 | 31 | 1016.3 |
| 20260506001018 | 67 | 320 | 4.3 | 7.8 | 0.00 | 0.00 | 0.00 | 31 | 1016.5 |
| 20260506000518 | 66 | 313 | 2.6 | 9.6 | 0.00 | 0.00 | 0.00 | 32 | 1016.5 |
| 20260506000043 | 65 | 250 | 1.7 | 10.4 | 0.00 | 0.00 | 0.00 | 30 | 1016.5 |
| 20260505235517 | 66 | 336 | 5.2 | 8.7 | 0.00 | 0.00 | 0.00 | 31 | 1016.6 |
| 20260505235015 | 65 | 300 | 1.7 | 10.4 | 0.00 | 0.00 | 0.00 | 31 | 1016.7 |
| 20260505234542 | 66 | 286 | 5.2 | 10.4 | 0.00 | 0.00 | 0.00 | 30 | 1016.6 |
| 20260505234016 | 65 | 289 | 3.5 | 6.1 | 0.00 | 0.00 | 0.00 | 31 | 1016.7 |
| 20260505233515 | 64 | 304 | 2.6 | 7.8 | 0.00 | 0.00 | 0.00 | 31 | 1016.7 |
| 20260505233047 | 64 | 289 | 3.5 | 9.6 | 0.00 | 0.00 | 0.00 | 30 | 1016.8 |
| 20260505232519 | 66 | 299 | 7.0 | 9.6 | 0.00 | 0.00 | 0.00 | 30 | 1016.6 |
| 20260505232013 | 67 | 313 | 5.2 | 10.4 | 0.00 | 0.00 | 0.00 | 29 | 1016.8 |
| 20260505231549 | 67 | 303 | 4.3 | 11.3 | 0.00 | 0.00 | 0.00 | 30 | 1016.7 |
| 20260505231015 | 67 | 309 | 6.1 | 12.2 | 0.00 | 0.00 | 0.00 | 28 | 1016.7 |
| 20260505230517 | 66 | 307 | 7.0 | 13.9 | 0.00 | 0.00 | 0.00 | 28 | 1016.7 |
| 20260505230052 | 67 | 288 | 5.2 | 13.9 | 0.00 | 0.00 | 0.00 | 27 | 1017.0 |
| 20260505225516 | 68 | 313 | 6.1 | 9.6 | 0.00 | 0.00 | 0.00 | 29 | 1016.9 |
| 20260505225016 | 67 | 319 | 6.1 | 10.4 | 0.00 | 0.00 | 0.00 | 29 | 1016.8 |
| 20260505224544 | 67 | 316 | 7.8 | 13.0 | 0.00 | 0.00 | 0.00 | 29 | 1016.9 |
| 20260505224015 | 67 | 348 | 7.8 | 13.0 | 0.00 | 0.00 | 0.00 | 28 | 1017.0 |
| 20260505223515 | 67 | 319 | 6.1 | 13.0 | 0.00 | 0.00 | 0.00 | 28 | 1017.1 |
| 20260505223045 | 67 | 311 | 7.8 | 12.2 | 0.00 | 0.00 | 0.00 | 28 | 1017.2 |
| 20260505222515 | 67 | 329 | 7.8 | 15.6 | 0.00 | 0.00 | 0.00 | 28 | 1017.1 |
| 20260505222017 | 66 | 298 | 6.1 | 15.6 | 0.00 | 0.00 | 0.00 | 29 | 1017.2 |
| 20260505221540 | 66 | 302 | 7.8 | 12.2 | 0.00 | 0.00 | 0.00 | 29 | 1017.2 |
| 20260505221017 | 66 | 360 | 6.1 | 11.3 | 0.00 | 0.00 | 0.00 | 27 | 1017.2 |
| 20260505220516 | 66 | 326 | 7.0 | 13.9 | 0.00 | 0.00 | 0.00 | 28 | 1017.1 |
| 20260505220053 | 66 | 304 | 7.8 | 13.9 | 0.00 | 0.00 | 0.00 | 28 | 1017.3 |
| 20260505215518 | 66 | 313 | 7.0 | 13.9 | 0.00 | 0.00 | 0.00 | 28 | 1017.3 |
| 20260505215016 | 65 | 295 | 6.1 | 13.0 | 0.00 | 0.00 | 0.00 | 28 | 1017.3 |
| 20260505214549 | 64 | 345 | 7.0 | 14.8 | 0.00 | 0.00 | 0.00 | 29 | 1017.4 |
| 20260505214014 | 66 | 293 | 10.4 | 14.8 | 0.00 | 0.00 | 0.00 | 27 | 1017.3 |
| 20260505213516 | 64 | 315 | 4.3 | 20.9 | 0.00 | 0.00 | 0.00 | 29 | 1017.2 |
| 20260505213116 | 65 | 275 | 10.4 | 15.6 | 0.00 | 0.00 | 0.00 | 28 | 1017.2 |
| 20260505212516 | 65 | 319 | 9.6 | 15.6 | 0.00 | 0.00 | 0.00 | 29 | 1017.2 |
| 20260505212015 | 64 | 275 | 10.4 | 14.8 | 0.00 | 0.00 | 0.00 | 30 | 1017.3 |
| 20260505211554 | 65 | 292 | 9.6 | 13.9 | 0.00 | 0.00 | 0.00 | 29 | 1017.4 |
| 20260505211021 | 64 | 294 | 9.6 | 15.6 | 0.00 | 0.00 | 0.00 | 31 | 1017.4 |
| 20260505210516 | 64 | 280 | 7.0 | 15.6 | 0.00 | 0.00 | 0.00 | 31 | 1017.5 |
| 20260505210054 | 65 | 283 | 9.6 | 13.9 | 0.00 | 0.00 | 0.00 | 30 | 1017.5 |
| 20260505205517 | 65 | 263 | 9.6 | 13.0 | 0.00 | 0.00 | 0.00 | 31 | 1017.6 |
| 20260505205020 | 64 | 276 | 6.1 | 13.0 | 0.00 | 0.00 | 0.00 | 31 | 1017.6 |
| 20260505204547 | 64 | 289 | 5.2 | 12.2 | 0.00 | 0.00 | 0.00 | 30 | 1017.6 |
| 20260505204018 | 64 | 262 | 8.7 | 13.0 | 0.00 | 0.00 | 0.00 | 30 | 1017.4 |
| 20260505203516 | 63 | 294 | 6.1 | 13.9 | 0.00 | 0.00 | 0.00 | 32 | 1017.6 |
| 20260505203053 | 63 | 285 | 9.6 | 13.9 | 0.00 | 0.00 | 0.00 | 32 | 1017.4 |
| 20260505202521 | 63 | 294 | 4.3 | 10.4 | 0.00 | 0.00 | 0.00 | 32 | 1017.5 |
| 20260505202026 | 63 | 310 | 6.1 | 13.9 | 0.00 | 0.00 | 0.00 | 32 | 1017.5 |
| 20260505201552 | 63 | 288 | 9.6 | 13.9 | 0.00 | 0.00 | 0.00 | 32 | 1017.5 |
| 20260505201016 | 63 | 325 | 5.2 | 13.0 | 0.00 | 0.00 | 0.00 | 32 | 1017.5 |
| 20260505200517 | 63 | 280 | 6.1 | 12.2 | 0.00 | 0.00 | 0.00 | 32 | 1017.6 |
| 20260505195516 | 63 | 292 | 6.1 | 9.6 | 0.00 | 0.00 | 0.00 | 34 | 1017.6 |
| 20260505195016 | 63 | 320 | 3.5 | 10.4 | 0.00 | 0.00 | 0.00 | 33 | 1017.8 |
| 20260505194610 | 63 | 319 | 5.2 | 10.4 | 0.00 | 0.00 | 0.00 | 34 | 1017.8 |
| 20260505194022 | 62 | 295 | 4.3 | 11.3 | 0.00 | 0.00 | 0.00 | 33 | 1017.6 |
| 20260505193520 | 62 | 269 | 3.5 | 11.3 | 0.00 | 0.00 | 0.00 | 34 | 1017.7 |
| 20260505193110 | 62 | 304 | 3.5 | 7.8 | 0.00 | 0.00 | 0.00 | 36 | 1017.6 |
| 20260505192518 | 62 | 279 | 0.9 | 10.4 | 0.00 | 0.00 | 0.00 | 32 | 1017.7 |
| 20260505192017 | 63 | 292 | 5.2 | 8.7 | 0.00 | 0.00 | 0.00 | 33 | 1017.8 |
| 20260505191609 | 63 | 337 | 4.3 | 8.7 | 0.00 | 0.00 | 0.00 | 34 | 1017.7 |
| 20260505191020 | 63 | 313 | 3.5 | 7.8 | 0.00 | 0.00 | 0.00 | 34 | 1017.6 |
| 20260505190519 | 63 | 294 | 5.2 | 8.7 | 0.00 | 0.00 | 0.00 | 34 | 1017.9 |
| 20260505190107 | 62 | 312 | 4.3 | 8.7 | 0.00 | 0.00 | 0.00 | 35 | 1018.0 |
| 20260505185517 | 61 | 294 | 2.6 | 10.4 | 0.00 | 0.00 | 0.00 | 35 | 1017.9 |
| 20260505185017 | 61 | 306 | 4.3 | 10.4 | 0.00 | 0.00 | 0.00 | 37 | 1017.8 |
| 20260505184550 | 60 | 304 | 2.6 | 12.2 | 0.00 | 0.00 | 0.00 | 36 | 1017.9 |
| 20260505184024 | 61 | 310 | 6.1 | 12.2 | 0.00 | 0.00 | 0.00 | 35 | 1017.9 |
| 20260505183657 | 60 | 306 | 3.5 | 11.3 | 0.00 | 0.00 | 0.00 | 38 | 1017.9 |
| 20260505183145 | 60 | 311 | 6.1 | 11.3 | 0.00 | 0.00 | 0.00 | 37 | 1017.8 |
| 20260505182520 | 60 | 258 | 4.3 | 11.3 | 0.00 | 0.00 | 0.00 | 37 | 1017.7 |
| 20260505182022 | 61 | 281 | 4.3 | 11.3 | 0.00 | 0.00 | 0.00 | 37 | 1017.7 |
| 20260505181620 | 61 | 315 | 2.6 | 5.2 | 0.00 | 0.00 | 0.00 | 38 | 1017.8 |
| 20260505181019 | 61 | 12 | 3.5 | 7.8 | 0.00 | 0.00 | 0.00 | 36 | 1017.7 |
| 20260505180514 | 61 | 319 | 3.5 | 7.8 | 0.00 | 0.00 | 0.00 | 39 | 1017.7 |
| 20260505180512 | 60 | 298 | 3.5 | 8.7 | 0.00 | 0.00 | 0.00 | 38 | 1017.6 |
| 20260505175517 | 60 | 288 | 5.2 | 8.7 | 0.00 | 0.00 | 0.00 | 37 | 1017.6 |
| 20260505175028 | 60 | 329 | 5.2 | 7.8 | 0.00 | 0.00 | 0.00 | 38 | 1017.7 |
| 20260505174546 | 59 | 310 | 4.3 | 13.0 | 0.00 | 0.00 | 0.00 | 39 | 1017.7 |
| 20260505174026 | 59 | 296 | 4.3 | 10.4 | 0.00 | 0.00 | 0.00 | 39 | 1017.6 |
| 20260505173512 | 59 | 332 | 5.2 | 10.4 | 0.00 | 0.00 | 0.00 | 38 | 1017.7 |
| 20260505173509 | 59 | 304 | 2.6 | 10.4 | 0.00 | 0.00 | 0.00 | 40 | 1017.7 |
| 20260505172516 | 58 | 313 | 5.2 | 10.4 | 0.00 | 0.00 | 0.00 | 40 | 1017.7 |
| 20260505172022 | 58 | 295 | 7.0 | 9.6 | 0.00 | 0.00 | 0.00 | 39 | 1017.6 |
| 20260505171619 | 58 | 298 | 3.5 | 7.8 | 0.00 | 0.00 | 0.00 | 40 | 1017.7 |
| 20260505171019 | 58 | 304 | 2.6 | 7.0 | 0.00 | 0.00 | 0.00 | 40 | 1017.6 |
| 20260505170514 | 58 | 304 | 1.7 | 7.0 | 0.00 | 0.00 | 0.00 | 41 | 1017.6 |
| 20260505170041 | 58 | 303 | 3.5 | 7.8 | 0.00 | 0.00 | 0.00 | 42 | 1017.8 |
| 20260505165516 | 58 | 323 | 2.6 | 7.8 | 0.00 | 0.00 | 0.00 | 42 | 1017.8 |